Temperature
14 14 14 14 14 14 14 14 14 15 15 14 14 14 15 15 15 14 14 14 14 14 14 13 13 13 13 13 13 13 13 13 13 13 13 14 14 13 13 13 13 12 12
13 14 14 14 14 14 14 14 14 14 14 14 14 14 14 15 15 15 14 14 14 14 13 13 13 13 13 13 13 13 13 13 12 12 12 12 13 12 12 12 12 12 11
13 14 14 15 15 15 15 15 14 14 14 14 14 14 14 14 14 14 14 14 14 14 13 13 13 13 13 13 13 13 13 13 12 12 12 11 11 11 11 11 11 11 11
14 14 14 15 15 15 15 15 15 15 15 14 14 14 14 14 14 14 14 14 14 14 13 13 13 13 13 13 13 13 13 13 12 12 12 11 10 10 10 10 10 10 10
14 14 15 15 15 15 15 15 15 15 15 14 14 14 14 14 14 14 14 14 14 14 13 13 13 13 13 13 13 13 13 12 12 12 11 11 10 10 9 9 9 9 9
14 14 15 15 15 15 15 15 15 15 15 15 14 14 14 14 14 14 14 14 13 13 13 13 13 13 13 13 13 13 12 12 12 11 11 10 10 9 8 8 8 8 8
13 14 14 15 15 15 15 15 15 15 15 15 14 14 14 14 14 14 13 13 13 13 13 13 13 13 13 12 12 12 12 12 11 11 10 10 9 9 8 7 7 7 7
13 13 14 14 15 15 15 15 15 15 15 14 14 14 14 14 14 13 13 13 13 13 13 13 12 12 12 12 12 12 11 11 11 10 10 9 9 8 7 7 6 6 6
12 13 13 14 14 14 14 14 14 14 14 14 14 14 14 13 13 13 13 13 13 12 12 12 12 12 12 12 11 11 11 11 10 9 9 8 8 7 7 6 6 5 5
12 12 13 13 13 14 14 14 14 14 14 13 13 13 13 13 13 13 12 12 12 12 12 12 11 11 11 11 11 11 10 10 9 8 8 7 7 6 6 6 5 5 4
11 11 12 12 13 13 13 13 13 13 13 13 13 13 12 12 12 12 12 12 11 11 11 11 11 11 10 10 10 10 9 9 8 7 7 6 6 5 5 5 5 4 4
10 10 11 11 12 12 12 12 12 12 12 12 12 12 12 11 11 11 11 11 11 10 10 10 10 10 10 10 9 9 8 8 7 6 6 5 4 4 4 4 4 4 4
9 10 10 11 11 11 11 11 11 11 11 11 11 11 11 10 10 10 10 10 10 10 10 10 10 9 9 9 9 8 7 7 6 5 4 4 3 3 3 3 3 3 3
8 9 9 9 10 10 10 10 10 10 10 10 10 10 10 9 9 9 9 9 9 9 9 9 9 9 8 8 8 7 6 5 5 4 3 3 2 2 2 3 3 3 3
7 7 8 8 9 9 9 10 10 10 10 10 9 9 9 8 8 8 8 8 8 8 8 8 8 8 7 7 6 6 5 4 4 3 2 2 2 2 2 2 2 2 2
5 6 7 7 8 8 8 9 9 9 9 9 9 8 8 8 7 7 8 8 8 8 8 7 7 7 6 6 5 5 4 3 2 2 2 1 1 1 1 1 1 1 1
4 5 6 6 6 7 7 8 8 8 8 8 8 8 7 7 7 7 7 7 7 7 7 7 6 6 5 5 4 4 3 2 2 1 1 1 1 1 1 1 1 1 1
4 5 5 5 6 6 6 7 7 7 7 7 7 7 7 7 6 6 6 6 6 6 6 6 5 5 4 4 4 3 2 2 1 1 1 1 0 0 0 0 0 0 0
3 4 4 4 5 5 5 6 6 6 6 7 7 7 6 6 6 6 6 6 5 5 5 5 4 4 4 3 3 2 2 1 1 1 0 0 0 0 0 0 0 0 0
3 3 3 4 4 4 4 5 5 6 6 6 6 6 6 6 6 5 5 5 5 4 4 4 3 3 3 2 2 1 1 1 0 0 0 0 0 -0 -0 -0 -0 -0 -0
2 2 3 3 3 3 3 4 4 5 5 5 5 5 5 5 5 5 4 4 4 3 3 3 3 3 2 2 1 1 1 0 0 0 -0 -0 -0 -0 -0 -0 -0 -0 -0
1 1 2 2 2 2 2 3 3 3 3 4 4 4 4 4 4 4 4 3 3 3 3 2 2 2 2 1 1 0 0 -0 0 0 -0 -0 -0 -0 -0 -0 -1 -1 -1
0 0 0 1 1 1 1 1 2 2 2 3 3 3 3 3 3 3 3 3 3 2 2 2 2 2 1 1 0 -0 -0 -0 -0 -0 -0 -0 -0 -1 -1 -1 -1 -1 -1
-1 -0 -0 -0 0 0 0 1 1 1 1 2 2 2 3 3 3 2 2 2 2 2 2 2 2 2 1 1 0 -0 -0 -1 -0 -0 -1 -1 -1 -1 -1 -1 -1 -1 -1
-1 -1 -1 -1 -1 -1 -0 -0 0 0 0 1 1 1 2 2 2 2 2 2 2 2 2 2 1 1 1 1 0 0 -0 -1 -1 -1 -1 -1 -1 -1 -1 -1 -1 -1 -1
-2 -2 -2 -2 -1 -1 -1 -1 -1 -1 -1 -0 0 0 1 1 1 1 1 1 1 1 1 1 1 1 1 0 0 -0 -0 -1 -1 -1 -1 -0 -0 -0 -0 -1 -1 -1 -1
Wind_Speed
5 4 4 6 7 8 10 12 12 12 10 7 7 6 6 6 5 5 8 11 11 12 10 6 5 5 5 4 4 3 2 1 0 1 3 3 3 2 2 2 3 4 5
5 5 4 4 8 9 10 11 12 11 11 9 7 5 4 4 4 4 6 8 10 11 10 7 5 5 4 4 4 3 2 1 1 1 1 4 4 3 3 3 4 4 5
8 7 6 5 6 8 10 9 10 11 12 10 6 4 3 2 2 4 4 5 8 9 9 8 6 5 5 5 4 4 4 2 1 1 2 1 3 3 3 3 4 4 4
7 6 6 6 6 7 7 8 9 9 10 10 9 9 8 7 7 6 5 5 6 7 8 8 7 5 4 5 4 4 3 3 2 1 1 2 2 2 3 2 2 4 5
7 7 6 6 5 5 5 5 6 7 7 8 10 10 8 6 5 5 6 5 3 5 6 7 6 5 4 5 4 4 3 3 3 2 1 2 2 3 4 4 2 2 3
6 5 4 3 3 2 3 3 4 4 5 7 8 9 10 8 7 7 7 5 4 3 5 6 6 5 5 5 4 4 4 3 2 2 2 2 2 3 4 5 4 2 0
4 2 2 2 2 2 3 4 5 4 4 5 6 7 7 8 9 8 8 7 5 4 5 5 5 5 5 5 5 4 3 3 3 2 2 2 2 2 2 3 4 3 1
1 0 1 0 1 1 2 3 3 3 3 3 3 3 5 5 5 6 7 7 5 5 6 6 6 6 6 5 5 4 3 2 2 2 2 1 1 1 2 2 2 3 2
2 3 3 2 2 1 1 2 2 2 2 2 2 2 3 4 4 5 6 6 6 6 7 6 6 6 6 5 5 3 3 2 2 2 2 1 1 1 1 2 2 3 3
4 4 4 4 4 3 2 3 2 2 2 2 1 2 2 3 4 5 6 7 7 8 8 7 7 6 5 5 4 3 3 2 2 1 2 1 1 0 0 1 2 2 3
6 5 6 5 5 5 4 4 3 2 1 1 2 2 3 4 5 5 6 7 7 8 8 8 7 7 5 5 4 3 3 3 2 2 2 2 1 1 0 1 1 2 2
6 6 7 7 7 6 5 4 2 1 0 1 2 3 3 4 5 6 6 7 8 7 8 7 7 6 5 4 4 4 3 3 3 3 3 2 2 1 1 1 1 1 1
9 8 8 8 7 6 5 4 3 2 1 1 3 3 4 5 5 6 6 7 8 8 7 7 7 6 5 4 4 4 3 3 3 3 3 3 3 2 1 0 0 1 1
8 9 9 8 7 6 6 5 4 2 1 1 3 4 5 5 6 6 6 7 7 7 7 6 6 6 5 5 4 4 4 3 3 3 3 3 3 3 2 1 0 1 1
10 9 8 8 8 8 7 6 5 3 2 2 3 4 4 5 6 6 6 6 7 7 7 7 6 5 4 4 5 5 5 4 4 3 3 3 3 4 3 2 1 0 0
9 9 9 9 8 8 8 7 6 5 3 3 4 4 5 6 6 6 7 7 7 6 7 6 6 5 4 6 7 6 5 5 5 4 3 3 3 3 3 3 3 2 1
8 9 8 8 8 8 7 8 7 5 3 3 3 4 5 6 6 7 7 7 7 6 6 6 6 5 5 7 7 7 5 5 5 5 4 3 3 4 4 4 5 5 4
8 8 8 8 7 7 7 7 6 5 4 3 4 4 5 6 6 7 7 7 5 6 6 6 6 5 5 7 7 8 6 4 4 4 5 4 3 3 4 4 3 2 3
6 7 7 7 7 8 7 7 6 5 4 4 4 4 5 6 7 8 8 6 6 6 5 5 7 6 6 8 8 8 5 4 4 4 4 5 4 6 6 5 3 2 1
6 7 7 7 7 8 7 7 6 5 5 5 5 4 5 7 8 8 7 5 6 6 6 6 6 6 6 8 10 10 5 5 4 3 4 6 6 7 7 6 5 4 2
7 7 7 7 7 8 7 7 7 6 6 5 4 4 5 7 7 6 6 6 6 6 6 6 5 6 7 9 11 12 6 6 5 4 4 4 8 8 8 7 6 6 4
7 7 7 8 7 7 7 8 8 7 6 5 4 4 4 5 5 7 7 7 8 8 7 6 6 5 6 8 10 13 12 9 6 5 5 5 9 9 9 7 7 8 5
7 7 7 8 8 7 6 8 8 7 6 5 5 4 4 4 5 7 8 7 8 7 7 6 6 6 5 7 13 14 14 14 7 6 8 9 10 9 7 8 9 6 4
7 7 7 8 9 8 8 7 8 8 6 6 5 4 4 4 5 6 7 8 8 8 7 8 7 6 6 6 6 7 8 11 8 6 8 11 11 8 7 6 5 4 5
7 7 7 9 10 9 9 8 8 7 7 6 5 4 4 5 6 6 7 8 9 9 10 8 8 8 8 10 14 10 7 6 6 6 4 3 3 4 4 4 4 4 4
7 8 8 9 9 9 9 9 8 7 7 6 5 4 4 4 5 5 6 10 10 13 14 12 10 9 11 11 14 16 15 15 14 8 5 6 7 7 7 6 6 5 6
Wind_Direction
275 273 234 203 191 196 200 199 197 192 184 186 190 191 199 197 190 191 198 201 196 189 184 179 170 167 171 171 167 157 156 165 79 351 323 312 307 326 340 351 358 360 6
270 269 249 207 198 197 200 197 198 194 193 196 193 187 180 190 191 179 187 199 196 188 184 173 170 165 158 150 149 140 137 134 104 120 353 331 336 354 17 24 30 24 34
249 253 253 229 209 201 198 199 198 196 198 194 176 154 140 123 172 192 192 198 193 184 176 170 160 159 159 160 156 152 156 175 181 173 178 221 276 309 331 30 36 34 35
245 244 246 242 222 218 202 195 196 199 196 188 186 181 185 193 200 196 185 177 173 168 166 159 154 153 151 152 157 156 157 158 190 212 218 214 210 258 307 328 29 39 37
241 241 237 235 226 210 201 196 190 191 189 187 190 191 196 197 179 168 166 165 156 147 149 146 143 144 146 148 145 146 147 155 174 186 196 223 223 222 240 277 302 11 31
241 243 242 229 220 170 164 167 176 186 181 184 191 191 194 183 171 174 174 169 158 146 147 143 144 142 143 144 141 139 140 149 162 180 192 202 214 219 227 251 263 259 220
219 223 235 223 209 167 160 161 170 179 173 180 192 195 194 186 187 184 182 175 170 171 167 151 147 139 134 130 126 126 134 148 165 184 203 211 226 226 233 248 263 255 214
217 122 329 255 192 162 147 153 163 158 153 173 188 184 182 185 188 183 174 174 171 163 154 144 139 130 127 122 119 118 124 144 158 180 191 206 237 240 240 245 259 272 241
39 40 22 30 53 71 107 148 148 133 132 147 159 164 170 175 174 165 158 154 148 143 140 134 129 122 118 117 120 126 134 141 156 177 181 192 209 232 256 254 242 250 262
37 32 27 29 43 54 54 69 93 111 113 125 154 146 145 151 149 151 151 147 143 137 136 133 128 123 120 120 120 121 127 138 158 166 160 160 169 160 302 283 272 256 255
36 29 26 29 43 49 54 56 61 76 98 128 136 126 122 127 133 138 141 140 137 139 140 139 135 131 128 126 123 126 136 151 154 147 153 153 135 128 5 330 298 271 255
39 35 32 31 34 33 30 31 33 47 82 137 136 139 136 134 135 137 138 139 138 135 135 135 133 133 135 135 137 141 146 157 169 164 155 160 145 125 64 16 327 299 283
36 31 29 26 22 17 12 8 5 358 353 156 157 159 158 155 150 145 141 139 136 133 132 133 135 138 140 138 139 146 148 154 164 165 166 166 158 154 134 86 341 320 321
35 31 24 16 10 5 359 351 343 337 317 193 180 184 180 168 157 149 144 142 139 138 138 134 136 140 142 143 144 146 143 142 141 143 150 153 159 166 160 142 0 329 333
27 22 14 5 1 358 352 345 333 322 299 228 208 203 180 161 154 151 147 142 140 142 139 134 134 138 144 155 156 154 154 154 145 134 129 133 142 158 159 155 167 130 185
14 7 3 358 354 347 340 334 326 313 286 242 227 200 173 167 166 160 151 146 144 142 140 145 147 152 163 174 173 163 160 162 159 154 139 126 114 118 114 112 115 132 158
2 356 349 340 334 330 328 323 315 309 287 256 231 198 183 180 176 164 158 159 158 152 152 157 160 166 178 181 180 176 159 162 169 169 165 160 150 119 94 89 74 53 52
350 343 336 331 327 323 322 317 315 308 289 267 242 209 191 187 175 169 173 169 160 162 165 170 170 169 188 190 188 179 149 156 170 176 177 172 164 163 151 129 103 65 36
332 326 322 317 318 321 321 322 320 313 298 280 259 227 201 190 182 186 184 173 166 170 172 171 173 177 193 197 193 169 145 161 177 181 180 179 183 200 178 154 149 127 18
327 325 324 322 324 323 323 324 320 315 301 291 277 246 210 198 197 195 184 174 172 176 171 175 179 182 192 202 199 177 158 171 181 186 198 201 198 208 194 167 170 187 201
321 324 326 326 320 319 324 323 319 310 302 297 283 255 223 209 201 189 179 172 170 168 174 181 187 191 201 208 207 194 174 181 183 191 199 211 213 214 208 189 185 206 188
324 325 326 324 321 321 326 322 314 308 306 296 280 260 235 213 193 181 179 175 173 176 182 188 197 205 209 212 215 211 202 193 184 194 197 207 216 219 217 203 200 212 189
317 319 319 319 320 322 322 314 312 312 308 298 284 270 245 214 192 188 186 184 186 189 191 195 207 210 204 213 219 220 216 209 195 197 206 211 217 219 222 218 211 205 171
312 314 315 315 316 318 316 307 308 309 303 293 286 271 245 227 208 201 196 195 195 197 197 203 211 209 203 205 209 212 220 217 210 200 212 216 218 212 210 219 216 185 179
305 307 307 307 307 310 310 308 306 305 300 293 283 268 246 232 222 215 212 208 209 204 201 206 204 203 214 216 207 198 202 196 192 170 168 180 186 195 193 195 198 191 194
304 305 304 302 303 305 304 306 305 298 293 291 282 268 252 240 230 224 228 222 218 220 218 212 205 213 218 217 213 212 212 210 202 188 188 199 204 208 209 210 208 206 208
Height
1473 1475 1477 1479 1483 1486 1490 1494 1497 1500 1504 1507 1510 1513 1516 1519 1522 1525 1528 1531 1533 1535 1537 1539 1541 1542 1544 1545 1546 1547 1547 1547 1547 1547 1546 1545 1544 1543 1542 1541 1541 1540 1540
1471 1473 1475 1478 1480 1483 1487 1490 1494 1497 1500 1503 1506 1510 1513 1516 1519 1522 1524 1527 1530 1532 1534 1536 1538 1539 1540 1542 1543 1544 1544 1544 1544 1544 1542 1541 1541 1539 1539 1538 1538 1538 1537
1468 1470 1473 1475 1478 1480 1484 1487 1490 1493 1496 1499 1502 1506 1509 1512 1515 1517 1520 1523 1525 1528 1530 1532 1534 1536 1537 1538 1539 1540 1541 1541 1541 1541 1541 1540 1538 1537 1536 1535 1535 1534 1534
1465 1467 1470 1472 1475 1478 1481 1484 1487 1489 1492 1496 1498 1501 1504 1507 1510 1513 1515 1519 1522 1524 1526 1528 1530 1532 1533 1535 1536 1537 1537 1537 1537 1537 1537 1537 1536 1536 1533 1532 1532 1531 1531
1461 1464 1467 1469 1472 1475 1478 1481 1484 1486 1489 1492 1495 1498 1501 1504 1507 1509 1512 1515 1517 1520 1522 1524 1526 1528 1529 1531 1532 1533 1533 1533 1533 1533 1533 1533 1532 1531 1531 1528 1528 1527 1527
1458 1461 1464 1466 1469 1472 1475 1478 1481 1484 1486 1489 1492 1495 1497 1500 1502 1505 1507 1510 1513 1516 1518 1520 1522 1524 1525 1527 1528 1528 1529 1529 1528 1528 1528 1528 1527 1527 1526 1524 1523 1522 1522
1456 1458 1461 1464 1466 1469 1473 1476 1478 1481 1484 1486 1489 1491 1494 1496 1499 1501 1504 1506 1509 1511 1514 1516 1518 1519 1521 1522 1523 1524 1524 1524 1524 1524 1523 1523 1522 1522 1521 1520 1519 1518 1518
1454 1456 1459 1461 1464 1467 1470 1473 1475 1478 1481 1483 1486 1488 1490 1492 1495 1497 1499 1502 1505 1507 1510 1512 1514 1516 1517 1518 1519 1519 1520 1520 1519 1519 1518 1518 1517 1517 1516 1516 1516 1514 1514
1453 1455 1458 1460 1462 1465 1468 1470 1473 1475 1478 1480 1483 1485 1487 1489 1491 1493 1495 1498 1500 1503 1505 1507 1509 1511 1512 1513 1514 1514 1515 1515 1514 1514 1513 1513 1512 1512 1512 1511 1511 1512 1510
1453 1455 1457 1459 1461 1464 1466 1468 1471 1473 1475 1477 1480 1481 1483 1485 1487 1489 1491 1493 1496 1498 1501 1503 1505 1506 1507 1508 1509 1509 1509 1509 1509 1508 1508 1508 1507 1507 1507 1507 1507 1507 1507
1454 1456 1457 1459 1461 1463 1465 1467 1469 1470 1472 1474 1476 1478 1479 1481 1483 1485 1487 1489 1491 1494 1496 1498 1500 1502 1503 1503 1504 1504 1504 1504 1504 1503 1503 1503 1502 1502 1502 1502 1502 1502 1502
1456 1457 1458 1459 1461 1462 1464 1466 1467 1469 1470 1471 1472 1474 1476 1477 1479 1481 1483 1485 1487 1490 1492 1494 1495 1497 1498 1498 1499 1499 1499 1499 1499 1498 1498 1498 1498 1498 1498 1498 1497 1497 1497
1458 1458 1459 1460 1461 1462 1463 1465 1466 1466 1467 1468 1469 1471 1472 1473 1475 1477 1479 1482 1483 1485 1487 1489 1491 1492 1492 1493 1493 1494 1493 1493 1493 1493 1493 1493 1493 1493 1493 1493 1493 1493 1493
1460 1461 1461 1461 1462 1463 1463 1464 1464 1464 1465 1466 1466 1467 1468 1470 1472 1474 1476 1478 1479 1481 1483 1485 1486 1487 1487 1488 1488 1488 1488 1488 1488 1489 1489 1489 1489 1489 1489 1489 1489 1489 1489
1462 1462 1462 1462 1462 1462 1462 1462 1462 1462 1462 1463 1463 1464 1465 1466 1468 1470 1472 1474 1475 1477 1479 1480 1481 1482 1483 1483 1483 1483 1484 1484 1484 1484 1485 1485 1485 1485 1485 1485 1485 1486 1486
1464 1464 1463 1462 1462 1461 1461 1460 1460 1460 1459 1459 1460 1460 1461 1463 1464 1466 1468 1469 1471 1473 1474 1476 1477 1478 1478 1478 1479 1479 1479 1479 1480 1480 1481 1481 1481 1481 1482 1482 1482 1482 1482
1465 1464 1463 1462 1461 1460 1459 1458 1457 1456 1456 1455 1456 1456 1457 1459 1460 1462 1463 1465 1467 1469 1470 1471 1472 1473 1473 1474 1474 1474 1475 1475 1476 1476 1477 1477 1478 1478 1478 1478 1478 1478 1479
1465 1464 1463 1461 1460 1458 1457 1455 1454 1453 1452 1452 1452 1452 1453 1454 1456 1457 1459 1461 1462 1464 1465 1466 1467 1468 1469 1469 1470 1470 1471 1471 1472 1473 1473 1474 1474 1475 1475 1475 1475 1476 1476
1465 1464 1462 1460 1458 1456 1454 1452 1450 1449 1448 1448 1448 1448 1449 1450 1451 1453 1454 1456 1457 1459 1460 1461 1462 1463 1464 1465 1465 1466 1467 1467 1468 1469 1470 1470 1471 1472 1472 1472 1473 1473 1474
1463 1461 1459 1457 1455 1453 1451 1449 1447 1445 1444 1444 1443 1444 1444 1445 1446 1448 1449 1451 1452 1453 1455 1456 1457 1458 1459 1460 1461 1462 1463 1464 1464 1465 1466 1467 1468 1468 1469 1470 1470 1471 1472
1461 1459 1456 1454 1452 1450 1447 1445 1443 1441 1440 1439 1439 1439 1439 1440 1441 1442 1444 1445 1447 1448 1449 1450 1452 1453 1454 1455 1456 1457 1458 1460 1460 1461 1462 1464 1465 1465 1466 1467 1468 1469 1469
1458 1455 1453 1451 1448 1446 1443 1441 1439 1437 1436 1435 1434 1434 1435 1435 1436 1437 1438 1439 1441 1442 1443 1445 1446 1448 1449 1450 1451 1453 1454 1455 1456 1458 1459 1460 1461 1462 1463 1464 1465 1466 1467
1454 1452 1449 1447 1444 1442 1440 1437 1435 1433 1432 1430 1430 1429 1429 1430 1430 1431 1432 1433 1435 1436 1437 1439 1440 1442 1444 1445 1447 1448 1450 1451 1452 1454 1455 1457 1458 1459 1460 1461 1462 1463 1464
1451 1448 1446 1443 1440 1438 1436 1433 1431 1429 1427 1426 1425 1424 1424 1424 1425 1426 1427 1428 1429 1430 1432 1433 1435 1437 1438 1440 1441 1443 1445 1446 1448 1450 1451 1453 1454 1456 1457 1458 1459 1460 1461
1447 1445 1442 1439 1436 1433 1431 1429 1427 1425 1423 1421 1420 1419 1419 1419 1419 1420 1421 1422 1424 1425 1426 1428 1430 1431 1432 1435 1437 1438 1440 1442 1444 1446 1447 1448 1450 1451 1453 1454 1456 1457 1457
1443 1440 1437 1434 1431 1429 1426 1424 1422 1420 1418 1416 1415 1414 1414 1414 1414 1415 1415 1416 1418 1419 1421 1422 1424 1425 1428 1429 1431 1433 1435 1437 1439 1440 1441 1444 1445 1447 1449 1450 1451 1452 1453